カタログに戻る

STARLINK-35210

運用中通信VLEO
NORAD 65903·PAYLOAD·🇺🇸 United States

打ち上げ Oct 7, 2025 から Cape Canaveral Space Force Station

Loading…

次のパス (今後24時間)

TLE

最新Source: CelesTrak SupGP

元期: Sep 15, 2026, 02:40 UTC

1 65903C 25224X   26258.11159722 -.00066623  00000+0 -19685-2 0  2582
2 65903  53.1577 210.8228 0001331  87.0155 327.6915 15.34422434    16

AllMySatでSTARLINK-35210をリアルタイム追跡

Download on the App Store